Orbital Elements
Epoch 1998 July 6.0 TT = JDT 2451000.5
T 1998 July 12.59514 TT MPC
q 1.3685915 (2000.0) P Q
n 0.14904303 Peri. 330.56216 -0.06109214 -0.96177700
a 3.5231268 Node 121.72870 +0.96612245 -0.12416288
e 0.6115407 Incl. 18.29053 +0.25074918 +0.24406675
P 6.61
From 2684 observations 1963 Sept. 12-2012 May 2, mean residual 0".6.
Nongravitational parameters A1 = +0.02, A2 = -0.0001.
|